Regional Weather Roundup
Issued by NWS

Home | Current Version | Previous Version | Text Only | Print | Product List | Glossary On
Versions: 1 2 3 4 5 6 7 8 9 10 11 12 13 14 15 16 17 18 19 20 21 22 23 24 25 26 27 28 29 30 31 32 33 34 35 36 37 38 39 40 41 42 43 44 45 46 47 48 49 50
000
ASUS43 KLSX 101907
RWRMO

WEATHER SUMMARY FOR MISSOURI
NATIONAL WEATHER SERVICE SPRINGFIELD MO
200 PM CDT THU JUL 10 2014

NOTE: "FAIR" INDICATES FEW OR NO CLOUDS BELOW 12,000 FEET WITH NO
       SIGNIFICANT WEATHER AND/OR OBSTRUCTIONS TO VISIBILITY.
       CURRENT SKY AND/OR WEATHER CONDITIONS ARE NOT AVAILABLE FOR
       CHILLICOTHE AND FARMINGTON.

MOZ001>031-035>038-043-044-053-054-102000-
...NORTHERN AND WESTERN MISSOURI...

CITY           SKY/WX    TMP DP  RH WIND       PRES   REMARKS
KANSAS CTY INT MOSUNNY   82  65  56 S12       30.06F
KANSAS C DTWN  MOSUNNY   84  65  52 S9G16     30.04F
LEE`S SUMMIT   PTSUNNY   81  65  58 SE12G17   30.07F
ST JOSEPH      SUNNY     82  66  58 SE13      30.05F
CHILLICOTHE      N/A     81  63  54 SE9       30.09F
KIRKSVILLE     SUNNY     80  60  50 SE12      30.13F

$$
MOZ066>068-077>081-088>096-101>105-102000-
...SOUTHWEST MISSOURI...

CITY           SKY/WX    TMP DP  RH WIND       PRES   REMARKS
SPRINGFIELD    CLOUDY    79  65  62 SE13      30.09F
JOPLIN         PTSUNNY   77  69  76 SE10      30.06S

$$
MOZ032>034-039>042-045>050-055>058-069>072-102000-
...CENTRAL MISSOURI...

CITY           SKY/WX    TMP DP  RH WIND       PRES   REMARKS
COLUMBIA       PTSUNNY   79  60  52 VRB7      30.12F
JEFFERSON CITY PTSUNNY   79  61  53 E7        30.10F
ROLLA          PTSUNNY   78  60  53 E7        30.12F
SEDALIA        CLOUDY    80  63  55 SE9       30.10F
OSAGE BEACH    CLOUDY    79  63  57 SE6       30.11S

$$
MOZ051-052-059>065-102000-
...EAST CENTRAL MISSOURI...

CITY           SKY/WX    TMP DP  RH WIND       PRES   REMARKS
ST LOUIS INTL  PTSUNNY   84  58  40 E10G17    30.12F
SPIRIT OF STL  MOSUNNY   82  56  40 SE6       30.10F
ST CHARLES     SUNNY     81  56  42 SE7       30.12F

$$
MOZ072>076-082>087-097>100-106>115-102000-
...SOUTH CENTRAL AND SOUTHEAST MISSOURI...

CITY           SKY/WX    TMP DP  RH WIND       PRES   REMARKS
CAPE GIRARDEAU PTSUNNY   83  63  50 NE9       30.10F
FARMINGTON     PTSUNNY   79  59  50 E7        30.15F
POPLAR BLUFF   MOSUNNY   83  64  52 E3        30.09F
WEST PLAINS    CLOUDY    76  65  68 SE6       30.13F

$$


USA.gov is the U.S. government's official web portal to all federal, state and local government web resources and services.